Regional Weather Roundup
Issued by NWS Wakefield, VA

Home | Current Version | Previous Version | Text Only | Print | Product List | Glossary Off
Versions: 1 2 3 4 5 6 7 8 9 10 11 12 13 14 15 16 17 18 19 20 21 22 23 24 25 26 27 28 29 30 31 32 33 34 35 36 37 38 39 40 41 42 43 44 45 46 47 48 49 50

000
ASUS41 KAKQ 281110
RWRAKQ

REGIONAL WEATHER ROUNDUP
NATIONAL WEATHER SERVICE WAKEFIELD VA
700 AM EDT MON JUL 28 2014

Note: "fair" indicates few or no clouds below 12,000 feet with no
significant weather and/or obstructions to visibility. * = Denotes
station may not report precipitation (e.g., rain,snow,etc.),
thunder or fog.

VAZ042-051-052>054-056-281200-
NORTHERN VIRGINIA

CITY           SKY/WX    TMP DP  RH WIND       PRES   REMARKS
WASH NATIONAL  PTCLDY    75  70  84 SW5       29.61R
DULLES         PTCLDY    67  65  93 S6        29.62R
FORT BELVOIR   CLEAR     70  68  96 S3        29.63R
QUANTICO       CLEAR     75  68  78 W9        29.63R
FREDERICKSBRG* CLEAR     76  70  82 SW10      29.63R
STAFFORD*      CLEAR     73  73 100 SW3       29.67S
WARRENTON      CLEAR     71  71 100 S5        29.63S
CULPEPER*      CLEAR    N/A N/A N/A CALM      29.64R
MANASSAS*      CLEAR     68  68 100 CALM      29.63R
LEESBURG*      CLEAR     72  68  88 W8        29.63R
WINCHESTER     CLEAR     68  64  88 S5        29.63S
$$

VAZ048-049-060>072-079>083-281200-
CENTRAL AND SOUTH CENTRAL VIRGINIA...AND NORTH CENTRAL NORTH CAROLINA

CITY           SKY/WX    TMP DP  RH WIND       PRES   REMARKS
RICHMOND       PTCLDY    79  68  69 W14       29.66S
CHESTERFIELD*  SUNNY    N/A N/A N/A W6        29.68S
HANOVER        CLEAR     77  67  71 SW8       29.67S
TAPPAHANNOCK*  CLEAR     75  68  78 SW5       29.65R
CHARLOTTSVILLE CLEAR     75  61  61 SW8       29.67R
ORANGE*        CLEAR     70  64  83 CALM      29.67S
LOUISA*        CLEAR     72  68  88 SW3       29.66S
FARMVILLE*     CLEAR     72  64  78 SW3       29.68S
SOUTH HILL*    CLEAR     75  66  73 SW5       29.76R
ROANOKE RAPIDS NOT AVBL
RALEIGH        PTCLDY    74  61  63 W7        29.76R
$$

VAZ088>098-281200-
SOUTHEAST VIRGINIA

CITY           SKY/WX    TMP DP  RH WIND       PRES   REMARKS
NORFOLK        CLOUDY    79  70  74 SW13      29.66R
VIRGINIA BEACH CLOUDY    79  71  76 SW12      29.68R
NORFOLK NAVAL  CLOUDY    80  70  71 SW8       29.69R
WEST POINT*    PTCLDY    79  70  73 W13G20    29.65F
NEWPORT NEWS   MOCLDY    82  70  66 SW14      29.67R
LANGLEY AFB    MOCLDY    79  71  78 W14       29.66R
FORT EUSTIS    MOCLDY    78  70  76 W7        29.66R
WILLIAMSBURG*  PTCLDY    81  72  74 W7        29.67R
FRANKLIN*      CLOUDY    75  70  83 SW7       29.69R
WAKEFIELD      MOCLDY    78  68  71 CALM      29.66R
$$

VAZ020-022-025-037-045-281200-
WESTERN AND SOUTHWEST VIRGINIA

CITY           SKY/WX    TMP DP  RH WIND       PRES   REMARKS
STAUNTON*      CLEAR     72  58  61 W9        29.72S
HOT SPRINGS VA CLOUDY    57  56  94 W25G37    29.83S
LYNCHBURG      CLEAR     72  64  76 W9        29.75R
DANVILLE       CLEAR     73  65  75 W9        29.75S
MARTINSVILLE   CLEAR     70  64  82 SW3       29.82R
ROANOKE        PTCLDY    71  60  68 W10       29.78R
BLACKSBURG     CLEAR     66  63  88 W7          N/A
DUBLIN*        PTCLDY    68  63  84 W7        29.86S
MARION*        MOCLDY   N/A N/A N/A W15       29.92R
HILLSVILLE*    CLEAR     64  60  85 W14G26    29.87S
RICHLANDS*     CLOUDY    65  63  93 W9        29.92S
WISE*          MOCLDY    61  61 100 CALM      29.95S
ABINGDON*      PTCLDY    66  65  97 W8        29.92S
$$

MDZ021>025-VAZ099-100-281200-
SOUTHERN MARYLAND AND THE DELMARVA PENINSULA

CITY           SKY/WX    TMP DP  RH WIND       PRES   REMARKS
PATUXENT RIVER PTCLDY    76  71  85 SW9       29.62R
BAY BRIDGE APT   N/A     77  73  88 SW8       29.60R
LEONARDTOWN    PTCLDY    73  70  88 SW7       29.64R
DOVER          MOSUNNY   75  75 100 SW8       29.56R
GEORGETOWN     MOSUNNY   76  72  87 S8        29.60S
EASTON         PTCLDY    77  77 100 W6        29.63S
CAMBRIDGE      PTCLDY    77  72  83 SW3       29.61R
SALISBURY      NOT AVBL
OCEAN CITY     SUNNY     78  73  84 SW6       29.60S
WALLOPS ISLAND CLEAR     80  74  81 W9        29.62S
ACCOMACK*        N/A     79  72  78 W10G17    29.63R
$$

NCZ012>017-030>032-281200-
EASTERN NORTH CAROLINA

CITY           SKY/WX    TMP DP  RH WIND       PRES   REMARKS
ELIZABETH CITY CLOUDY    79  71  76 SW9       29.69F
AHOSKIE*       PTCLDY    74  67  79 CALM      29.72R
EDENTON*       CLOUDY    80  73  81 SW7       29.72S
CURRITUCK*     LGT RAIN  81  68  65 SW7       29.71S
KILL DEVIL HLS CLOUDY    82  74  76 SW10G18   29.71S
MANTEO         NOT AVBL
CAPE HATTERAS  MOCLDY    81  80  97 W15       29.77S FOG
GOLDSBORO      MOCLDY    79  71  75 SW9       29.74R
WASHINGTON     CLOUDY    78  73  82 SW5       29.74R
GREENVILLE     MOCLDY    79  70  73 SW6       29.77R
NEW BERN       MOCLDY    81  73  76 SW7       29.77F
WILMINGTON     MOCLDY    82  73  74 SW8       29.80S
$$

VAZ048-281200-
ELSEWHERE

CITY           SKY/WX    TMP DP  RH WIND       PRES   REMARKS
HARRISBURG PA  PTCLDY    66  63  90 CALM      29.58R
BALTIMORE      PTCLDY    71  68  90 W3        29.60R
ANNAPOLIS      CLEAR     75  71  87 VRB5      29.60R
ANDREWS AFB    CLEAR     74  73  96 SW5       29.62R
WILMINGTON DE  SUNNY     69  68  96 SW3       29.58R
PHILADELPHIA   PTSUNNY   71  67  87 SW7       29.56S
WILDWOOD NJ*   MOSUNNY   75  70  83 SW10      29.60R
ATLANTIC CITY  PTSUNNY   72  71  97 S7        29.57R
HENDERSON NC   CLEAR     73  62  66 SW6       29.74S
GREENSBORO     PTCLDY    69  66  90 W8        29.79R
ROCKY MOUNT    MOCLDY    78  61  55 W6        29.73S
FAYETTEVILLE   CLOUDY    79  67  66 SW6       29.79R
CHARLOTTE      PTCLDY    69  66  90 SW5       29.84R
$$

VAZ100-281200-
MARINE

STATION/POSITION TIME  TEMP    WIND        PRES    WAVE   SWELL
                       AIR SEA DIR/SP/G            HT/PER HT/PER
                 (UTC) (F)     (DEG/KT/KT) (MB)    (FT/S) (FT/S)
44066 TX TWR #4  1100   73 74  330/  4/  6 1002.8F   4/ 5   3/ 5
CAPE MAY NJ      1100   74 77  230/ 11/ 12 1001.3S
LEWES DE         1100   76 70  240/  8/ 12 1001.6S
15NM E FENWICK I 1100   75 74              1002.0R   4/ 6
OCEAN-CITY-INLET 1100   77 72  270/  7/  9 1001.9S
WACHAPREAGUE VA  1100   79 79  240/  7/ 12 1003.5R
THOMAS POINT MD  1100   76 79  240/ 13/ 15 1002.9R
GOOSES REEF MD   1100   77     270/ 10/ 12 1002.9S
COVE POINT MD    1100   76     270/  9/ 12 1002.5R
SOLOMONS ISLAND  1100      80                N/A
BISHOPS HEAD MD  1100   78 77  260/ 18/ 20 1002.5R
PINEY POINT MD   1100          270/ 10/ 12   N/A
POTOMAC MD       1100   78     260/ 14/ 17 1002.4R
CAMBRIDGE MD     1100   77 80  250/  5/  7 1002.1S
LEWISETTA VA     1100   77 79  240/ 10/ 12 1003.0S
RAPPAHANNOCK LGT 1100          240/ 18/ 20 1003.8S
STINGRAY PT      1100   79     260/ 12/ 16 1004.0F
YORK RVR RNG VA  1100   80     270/ 17/ 19 1003.2R
YORKTOWN VA      1100   79 80  240/ 11/ 13 1003.6R
JAMESTOWN VA     1100   78     280/ 12/ 14   N/A
DOMINION TERM VA 1100   80     240/ 14/ 17 1004.5R
KIPTOPEKE VA     1100      81  260/ 16/ 18   N/A
CHES BAY BRIDGE  1100   80 78  220/ 17/ 19 1003.6S
CAPE HENRY VA    1100   80     230/ 11/ 16 1003.4S
WILLOUBY STN VA  1100          240/ 16/ 18 1003.6R
S CRANEY ISL VA  1100          220/  8/ 13 1004.8R
CAPE HENRY BUOY  1100      76                N/A     3/ 5
1ST LANDING BUOY 1100   81     250/ 16/ 19 1004.3S
CAPE CHARLES BUO 1100      74                N/A     3/ 5
OFFSHORE WE BUOY 1100      78                N/A     4/ 5
64NM E OF VA BCH 1100   80 78  220/ 19/ 21 1004.6R   4/ 5   2/10
DUCK PIER NC     1100   81 62  220/ 20/ 25 1005.6R
44056 DUCK FRF   1100                        N/A     2/ 9
OREGON INLET NC  1100   82 81  230/ 17/ 20 1006.8R
HATTERAS NC      1100   81 81  230/ 13/ 19 1008.5S
DIAMOND SHLS NC  1100          VRB 21/ 27  1008.0R   6/ 6   2/ 9
CAPE LOOKOUT NC  1100   82     230/ 12/ 14 1008.8S
$$


USA.gov is the U.S. government's official web portal to all federal, state and local government web resources and services.